Tracking 35030 objects as of 9-Aug-2026
HD Live streaming from Space Station
objects crossing your sky now

SALYUT 7 DEB


SALYUT 7 DEB is no longer on orbit


NORAD ID: 16168
Int'l Code: 1982-033FU
Launch date: April 19, 1982
Source: Commonwealth of Independent States (former USSR) (CIS)
Launch site: TYURATAM MISSILE AND SPACE COMPLEX (TTMTR)
Decay date: 1986-01-24

Note: This is SATELLITE DEBRIS
Your satellite tracking list
Your tracking list is empty




NASA's NSSDC Master Catalog

Two Line Element Set (TLE):
1 16168U 82033 FU 85337.60775985  .00059209 +00000-0 +33137-3 0  9996
2 16168 051.6251 159.4972 0009981 238.7641 119.9938 15.78815804208950
Source of the keplerian elements: AFSPC